Location: Sondrio
(46.1670°N, 9.8670°E)
Time: 09:55:50
(UTC+01:00)

ISS - Visible Passes

Search period start: 22 January 2019 00:00
Search period end: 01 February 2019 00:00
Orbit: 404 x 410 km, 51.6° (Epoch: 23 January)

Date Brightness Start Highest point End Pass type
(mag) Time Alt. Az. Time Alt. Az. Time Alt. Az.
22 Jan -1.7 19:28:37 10° SW 19:30:01 22° SSW 19:30:01 22° SSW visible
23 Jan -2.6 18:37:45 10° SSW 18:40:34 26° SE 18:41:04 25° ESE visible
23 Jan -0.3 20:13:40 10° WSW 20:13:48 11° WSW 20:13:48 11° WSW visible
24 Jan -1.7 17:47:18 10° S 17:49:24 16° SE 17:51:30 10° E visible
24 Jan -3.0 19:22:15 10° WSW 19:24:46 50° WSW 19:24:46 50° WSW visible
25 Jan -3.6 18:30:58 10° SW 18:34:13 57° SSE 18:35:40 28° E visible
25 Jan -0.6 20:07:44 10° W 20:08:23 14° W 20:08:23 14° W visible
26 Jan -3.2 19:16:09 10° W 19:19:13 49° NNW 19:19:13 49° NNW visible
27 Jan -3.7 18:24:38 10° WSW 18:27:56 72° NNW 18:29:59 21° ENE visible
27 Jan -0.8 20:01:49 10° WNW 20:02:42 16° WNW 20:02:42 16° WNW visible
28 Jan -2.8 19:10:11 10° W 19:13:16 35° NNW 19:13:25 35° N visible
29 Jan -3.0 18:18:33 10° W 18:21:44 43° NNW 18:24:07 16° NE visible
29 Jan -1.1 19:55:47 10° WNW 19:56:49 17° NW 19:56:49 17° NW visible
30 Jan -2.6 19:04:11 10° WNW 19:07:10 30° N 19:07:29 29° N visible
31 Jan -2.6 18:12:31 10° WNW 18:15:34 33° N 18:18:09 13° NE visible
31 Jan -1.4 19:49:33 10° WNW 19:50:52 20° NW 19:50:52 20° NW visible
